Stations météo

Publicité
Besancon, France (7288): Température de l'air & dewpoint: 12.08.2017 03:00:00 - 18.08.2017 03:00:00 (CEST)Besancon, France (7288): Température de l'air 5cm: 12.08.2017 03:00:00 - 18.08.2017 03:00:00 (CEST)Besancon, France (7288): Température de l'air -20cm & Température de l'air -100cm: 12.08.2017 03:00:00 - 18.08.2017 03:00:00 (CEST)Besancon, France (7288): Vitesse du vent & gusts: 12.08.2017 03:00:00 - 18.08.2017 03:00:00 (CEST)Besancon, France (7288): Direction du vent: 12.08.2017 03:00:00 - 18.08.2017 03:00:00 (CEST)Besancon, France (7288): reduced air pressure: 12.08.2017 03:00:00 - 18.08.2017 03:00:00 (CEST)Besancon, France (7288): visibility: 12.08.2017 03:00:00 - 18.08.2017 03:00:00 (CEST)Besancon, France (7288): Ensoleillement: 12.08.2017 03:00:00 - 18.08.2017 03:00:00 (CEST)Besancon, France (7288): Quantités de précipitations: 12.08.2017 03:00:00 - 18.08.2017 03:00:00 (CEST)
Date & Time tt [°C] td [°C] tt 5cm [°C] tt -20cm [°C] tt -100cm [°C] ff [km/h] ff [knt] fx [km/h] fx [knt] dd ppp [hPa] vv [km] sd [min] rr [mm]
18.08.2017 03:00:00 16,5 13,0 12,6 22,9 19,6 0 0 4 2 N 1018,0 - 0 0,0
18.08.2017 02:00:00 17,4 13,3 13,4 23,0 19,7 0 0 3 2 N 1018,1 - 0 0,0
18.08.2017 01:00:00 17,7 13,4 13,6 23,1 19,6 2 1 5 3 NNE 1018,4 - 0 0,0
18.08.2017 00:00:00 18,7 13,5 14,2 23,2 19,6 0 0 4 2 N 1018,3 - 0 0,0
17.08.2017 23:00:00 20,1 13,5 15,6 23,2 19,6 0 0 3 2 N 1018,0 - 0 0,0
17.08.2017 22:00:00 21,9 13,3 16,3 23,2 19,6 0 0 5 3 N 1017,7 - 0 0,0
17.08.2017 21:00:00 24,0 12,6 18,7 23,2 19,6 3 1 10 6 SSW 1017,5 - 9 0,0
17.08.2017 20:00:00 26,7 12,7 25,1 23,1 19,6 5 3 22 12 SW 1017,2 - 35 0,0
17.08.2017 19:00:00 27,7 12,1 28,3 23,0 19,6 8 4 21 11 SW 1017,2 - 60 0,0
17.08.2017 18:00:00 28,4 12,7 29,1 22,8 19,6 8 4 22 12 SW 1017,6 - 40 0,0
17.08.2017 17:00:00 27,5 13,1 29,5 22,6 19,6 7 4 25 14 SW 1017,6 30 46 0,0
17.08.2017 16:00:00 28,2 13,7 33,8 22,4 19,6 10 6 23 12 SW 1017,6 30 60 0,0
17.08.2017 15:00:00 27,2 13,9 34,2 22,2 19,6 10 5 29 15 SW 1018,1 30 56 0,0
17.08.2017 14:00:00 26,8 14,2 32,5 22,1 19,6 11 6 26 14 WSW 1018,6 30 56 0,0
17.08.2017 13:00:00 25,7 14,2 30,4 21,9 19,6 7 4 21 11 SW 1018,9 30 49 0,0
17.08.2017 12:00:00 25,5 14,0 33,2 21,9 19,6 8 4 16 9 WSW 1019,4 25 60 0,0
17.08.2017 11:00:00 24,0 14,7 27,1 21,9 19,6 6 3 15 8 WSW 1019,7 20 50 0,0
17.08.2017 10:00:00 22,7 15,3 24,8 21,9 19,6 6 3 12 7 WSW 1019,9 - 49 0,0
17.08.2017 09:00:00 20,4 15,6 19,4 22,0 19,6 3 2 8 4 SSW 1020,0 18 4 0,0
17.08.2017 08:00:00 19,3 15,6 16,4 22,1 19,6 0 0 5 3 N 1019,9 18 3 0,0
17.08.2017 07:00:00 18,6 15,7 16,4 22,1 19,6 0 0 5 3 N 1019,6 15 0 0,0
17.08.2017 06:00:00 18,3 15,7 16,0 22,3 19,6 0 0 3 2 N 1019,5 10 0 0,0
17.08.2017 05:00:00 18,0 16,0 14,5 22,3 19,6 0 0 3 2 N 1019,1 - 0 0,0
17.08.2017 04:00:00 18,4 16,6 14,7 22,4 19,6 0 0 4 2 N 1019,2 - 0 0,0
17.08.2017 03:00:00 18,1 16,3 14,6 22,5 19,6 2 1 4 2 N 1019,2 - 0 0,0
17.08.2017 02:00:00 18,9 16,5 16,0 22,5 19,6 2 1 5 3 NE 1019,6 - 0 0,0
17.08.2017 01:00:00 19,1 16,3 15,9 22,6 19,6 0 0 3 2 N 1019,6 - 0 0,0
17.08.2017 00:00:00 19,7 16,7 16,1 22,6 19,6 3 2 5 3 NNE 1019,7 - 0 0,0
16.08.2017 23:00:00 20,8 17,0 16,8 22,6 19,6 2 1 4 2 N 1019,3 - 0 0,0
16.08.2017 22:00:00 22,1 16,4 19,0 22,7 19,6 0 0 3 1 N 1019,3 - 0 0,0
16.08.2017 21:00:00 23,0 15,8 20,3 22,6 19,6 0 0 0 0 N 1019,0 - 0 0,0
16.08.2017 20:00:00 24,4 16,1 23,7 22,6 19,6 0 0 6 4 N 1018,6 - 1 0,0
16.08.2017 19:00:00 24,9 15,8 24,9 22,5 19,6 3 2 8 4 NNW 1018,5 - 0 0,0
16.08.2017 18:00:00 25,7 15,4 27,0 22,3 19,6 0 0 11 6 N 1018,6 - 7 0,0
16.08.2017 17:00:00 25,9 16,2 29,8 22,1 19,6 4 2 11 6 NW 1018,7 25 13 0,0
16.08.2017 16:00:00 26,0 16,0 30,8 21,9 19,5 5 3 14 8 W 1018,8 25 29 0,0
16.08.2017 15:00:00 25,8 16,4 30,2 21,7 19,5 7 4 19 11 W 1019,3 - 37 0,0
16.08.2017 14:00:00 25,6 16,2 34,9 21,6 19,6 6 3 15 8 WNW 1019,4 25 57 0,0
16.08.2017 13:00:00 25,4 16,5 36,2 21,5 19,6 2 1 13 7 NW 1019,4 - 60 0,0
16.08.2017 12:00:00 23,9 17,4 28,9 21,5 19,5 6 3 11 6 NW 1020,2 25 55 0,0
16.08.2017 11:00:00 22,0 16,7 27,3 21,5 19,6 4 2 15 8 W 1020,9 20 36 0,0
16.08.2017 10:00:00 21,5 16,5 21,5 21,6 19,6 5 3 16 9 WSW 1020,6 18 60 0,0
16.08.2017 09:00:00 18,0 16,2 16,1 21,7 19,5 3 1 8 4 SSW 1021,1 15 60 0,0
16.08.2017 08:00:00 16,0 15,2 13,9 21,8 19,6 0 0 4 2 N 1021,3 15 16 0,0
16.08.2017 07:00:00 15,6 14,8 13,7 21,9 19,5 2 1 6 4 N 1021,3 - 0 0,0
16.08.2017 06:00:00 15,8 15,0 12,9 22,0 19,6 0 0 5 3 N 1021,0 15 0 0,0
16.08.2017 05:00:00 15,8 15,0 12,8 22,1 19,5 3 2 7 4 NNE 1021,2 - 0 0,0
16.08.2017 04:00:00 16,5 15,7 12,9 22,2 19,5 0 0 3 2 N 1020,9 - 0 0,0
16.08.2017 03:00:00 16,8 15,8 13,4 22,3 19,5 0 0 5 3 N 1020,9 - 0 0,0
16.08.2017 02:00:00 17,3 16,2 14,6 22,3 19,5 0 0 4 2 N 1020,6 - 0 0,0
16.08.2017 01:00:00 18,0 16,5 16,4 22,4 19,5 0 0 4 2 N 1020,6 - 0 0,0
16.08.2017 00:00:00 18,4 16,6 17,3 22,4 19,5 0 0 5 3 N 1020,5 - 0 0,2
15.08.2017 23:00:00 18,8 16,0 17,6 22,4 19,5 0 0 10 5 N 1020,3 - 0 0,6
15.08.2017 22:00:00 20,1 16,1 18,5 22,4 19,5 0 0 6 3 N 1021,0 - 0 1,0
15.08.2017 21:00:00 23,0 14,0 18,7 22,4 19,5 5 3 13 7 NW 1019,4 - 0 0,0
15.08.2017 20:00:00 24,3 13,5 22,0 22,4 19,5 0 0 6 3 N 1018,3 - 0 0,0
15.08.2017 19:00:00 25,4 11,9 25,3 22,3 19,5 0 0 6 3 N 1018,0 - 0 0,0
15.08.2017 18:00:00 26,0 12,1 26,3 22,2 19,5 2 1 11 6 WSW 1018,0 - 11 0,0
15.08.2017 17:00:00 27,5 13,8 33,1 22,0 19,5 5 3 25 13 NW 1018,1 30 60 0,0
15.08.2017 16:00:00 26,4 12,8 23,8 21,9 19,5 12 6 26 14 NW 1018,3 30 13 0,0
15.08.2017 15:00:00 26,6 10,7 24,3 21,7 19,5 7 4 24 13 W 1018,2 25 13 0,0
15.08.2017 14:00:00 29,3 11,4 34,1 21,5 19,5 9 5 25 13 SW 1017,3 30 34 0,0
15.08.2017 13:00:00 28,8 11,4 34,7 21,5 19,5 10 6 25 14 SW 1017,1 30 44 0,0
15.08.2017 12:00:00 28,2 12,1 33,1 21,4 19,5 13 7 32 17 SW 1017,3 30 60 0,0
15.08.2017 11:00:00 27,0 12,2 31,6 21,4 19,5 11 6 33 18 SW 1017,1 30 60 0,0
15.08.2017 10:00:00 25,2 12,4 25,0 21,5 19,5 13 7 28 15 SW 1017,2 25 60 0,0
15.08.2017 09:00:00 22,1 12,9 15,9 21,6 19,5 5 3 13 7 SSW 1017,3 22 60 0,0
15.08.2017 08:00:00 17,4 12,7 13,6 21,7 19,5 0 0 5 3 N 1018,0 18 27 0,0
15.08.2017 07:00:00 17,3 13,0 13,6 21,8 19,5 0 0 4 2 N 1017,4 17 0 0,0
15.08.2017 06:00:00 18,0 12,7 14,0 21,9 19,5 0 0 9 5 N 1017,0 15 0 0,0
15.08.2017 05:00:00 17,4 13,3 13,9 22,0 19,5 0 0 6 3 N 1017,0 - 0 0,0
15.08.2017 04:00:00 17,5 13,4 13,7 22,1 19,5 0 0 7 4 N 1017,1 - 0 0,0
15.08.2017 03:00:00 17,8 14,3 13,9 22,2 19,5 0 0 5 3 N 1016,9 - 0 0,0
15.08.2017 02:00:00 18,7 14,8 14,4 22,2 19,5 0 0 6 3 N 1016,7 - 0 0,0
15.08.2017 01:00:00 19,7 15,3 15,3 22,3 19,5 3 1 5 3 NNE 1016,8 - 0 0,0
15.08.2017 00:00:00 20,8 15,8 16,3 22,3 19,5 3 2 9 5 W 1016,8 - 0 0,0
14.08.2017 23:00:00 21,3 15,8 16,6 22,3 19,5 3 2 5 3 NNE 1016,5 - 0 0,0
14.08.2017 22:00:00 22,7 15,8 17,7 22,2 19,5 3 1 5 3 N 1016,5 - 0 0,0
14.08.2017 21:00:00 24,4 15,1 19,0 22,1 19,5 0 0 7 4 N 1015,7 - 22 0,0
14.08.2017 20:00:00 28,2 15,1 28,3 22,0 19,5 5 3 13 7 WSW 1014,9 - 50 0,0
14.08.2017 19:00:00 29,1 15,2 32,9 21,8 19,5 5 3 15 8 W 1014,7 - 60 0,0
14.08.2017 18:00:00 29,1 14,9 34,2 21,6 19,5 6 4 19 11 SW 1015,1 - 60 0,0
14.08.2017 17:00:00 28,9 15,1 34,4 21,3 19,5 4 2 16 9 WNW 1015,4 - 60 0,0
14.08.2017 16:00:00 28,1 16,4 37,8 21,1 19,6 5 3 21 11 WNW 1015,8 30 60 0,0
14.08.2017 15:00:00 27,5 14,5 35,4 20,8 19,5 8 4 26 14 WSW 1016,5 30 56 0,0
14.08.2017 14:00:00 26,6 15,3 37,5 20,6 19,6 4 2 18 10 NNW 1017,1 30 60 0,0
14.08.2017 13:00:00 25,3 14,7 36,6 20,5 19,5 7 4 17 9 W 1017,7 - 60 0,0
14.08.2017 12:00:00 24,3 14,1 36,7 20,5 19,6 7 4 13 7 WNW 1018,3 30 60 0,0
14.08.2017 11:00:00 23,6 14,3 32,8 20,5 19,6 4 2 8 5 S 1018,3 30 60 0,0
14.08.2017 10:00:00 21,1 13,8 20,2 20,5 19,5 2 1 6 3 SW 1018,7 25 60 0,0
14.08.2017 09:00:00 17,5 13,6 13,7 20,6 19,6 0 0 6 3 N 1019,2 25 58 0,0
14.08.2017 08:00:00 15,2 13,7 11,6 20,7 19,6 0 0 3 2 N 1019,3 20 38 0,0
14.08.2017 07:00:00 14,8 13,5 11,2 20,8 19,6 0 0 3 1 N 1019,1 15 0 0,0
14.08.2017 06:00:00 15,3 13,7 11,6 20,9 19,6 0 0 3 2 N 1019,0 - 0 0,0
14.08.2017 05:00:00 15,8 13,8 12,5 21,0 19,6 0 0 5 3 N 1019,0 - 0 0,0
14.08.2017 04:00:00 16,2 14,2 13,2 21,0 19,6 0 0 4 2 N 1019,3 - 0 0,0
14.08.2017 03:00:00 16,6 14,4 14,1 21,2 19,6 2 1 6 3 NNE 1019,2 - 0 0,0
14.08.2017 02:00:00 16,5 14,5 12,9 21,2 19,6 3 1 6 3 N 1019,4 - 0 0,0
14.08.2017 01:00:00 16,6 14,2 13,1 21,2 19,6 4 2 7 4 N 1019,8 - 0 0,0
14.08.2017 00:00:00 16,8 13,9 13,6 21,3 19,6 0 0 4 2 N 1020,0 - 0 0,0
13.08.2017 23:00:00 17,7 13,8 14,3 21,3 19,6 3 2 9 5 N 1020,1 - 0 0,0
13.08.2017 22:00:00 19,4 14,4 16,5 21,2 19,6 6 3 16 9 NNE 1019,8 - 0 0,0
13.08.2017 21:00:00 21,2 13,9 19,6 21,1 19,6 8 4 18 10 N 1019,2 - 4 0,0
13.08.2017 20:00:00 23,6 13,7 24,7 21,0 19,6 6 4 14 8 N 1018,6 - 47 0,0
13.08.2017 19:00:00 23,8 11,8 23,7 20,8 19,6 3 1 9 5 WSW 1018,6 - 21 0,0
13.08.2017 18:00:00 24,9 12,5 31,0 20,7 19,7 2 1 11 6 NW 1018,6 - 54 0,0
13.08.2017 17:00:00 24,5 12,8 29,7 20,5 19,6 6 3 16 8 NNW 1019,0 30 56 0,0
13.08.2017 16:00:00 23,0 13,7 27,9 20,3 19,7 3 2 13 7 WNW 1019,5 30 10 0,0
13.08.2017 15:00:00 22,7 13,7 26,4 20,1 19,7 4 2 15 8 W 1019,7 30 24 0,0
13.08.2017 14:00:00 22,3 13,1 27,9 19,9 19,7 8 4 13 7 WNW 1020,2 30 30 0,0
13.08.2017 13:00:00 21,7 13,1 29,5 19,9 19,7 5 3 13 7 W 1020,6 30 54 0,0
13.08.2017 12:00:00 20,4 12,9 24,1 19,8 19,6 6 3 13 7 WSW 1021,2 30 33 0,0
13.08.2017 11:00:00 18,9 11,9 22,3 19,9 19,7 5 3 11 6 W 1021,5 25 0 0,0
13.08.2017 10:00:00 17,9 11,2 18,4 19,9 19,7 0 0 3 2 N 1021,6 25 0 0,0
13.08.2017 09:00:00 15,9 11,7 15,6 20,0 19,7 0 0 3 1 N 1021,7 25 0 0,0
13.08.2017 08:00:00 14,7 11,5 13,7 20,0 19,7 2 1 4 2 N 1021,4 20 0 0,0
13.08.2017 07:00:00 13,4 11,1 12,1 20,1 19,7 0 0 3 2 N 1021,3 20 0 0,0
13.08.2017 06:00:00 13,1 11,2 10,8 20,2 19,7 0 0 4 2 N 1021,4 15 0 0,0
13.08.2017 05:00:00 13,7 11,2 11,5 20,2 19,7 2 1 3 2 NNE 1021,5 - 0 0,0
13.08.2017 04:00:00 14,2 11,2 13,1 20,4 19,7 0 0 0 0 N 1021,7 - 0 0,0
13.08.2017 03:00:00 13,9 11,2 12,2 20,5 19,7 0 0 3 2 N 1021,7 - 0 0,0
13.08.2017 02:00:00 13,6 10,9 10,7 20,5 19,7 0 0 4 2 N 1021,9 - 0 0,0
13.08.2017 01:00:00 13,8 11,0 11,0 20,6 19,7 0 0 3 2 N 1022,3 - 0 0,0
13.08.2017 00:00:00 14,3 10,7 10,5 20,7 19,8 0 0 5 3 N 1022,2 - 0 0,0
12.08.2017 23:00:00 15,7 10,5 11,0 20,6 19,7 0 0 0 0 N 1022,1 - 0 0,0
12.08.2017 22:00:00 17,0 10,4 12,7 20,6 19,8 0 0 5 3 N 1021,8 - 0 0,0
12.08.2017 21:00:00 19,1 10,4 16,5 20,6 19,8 2 1 8 4 S 1021,0 - 1 0,0
12.08.2017 20:00:00 20,3 9,8 20,0 20,5 19,8 5 3 13 7 SSW 1020,8 - 0 0,0
12.08.2017 19:00:00 20,6 10,1 21,7 20,4 19,8 6 3 19 11 SW 1020,6 - 0 0,0
12.08.2017 18:00:00 20,8 10,3 23,3 20,4 19,8 6 3 18 10 SW 1020,9 - 10 0,0
12.08.2017 17:00:00 21,2 10,4 25,1 20,2 19,8 5 3 22 12 SSW 1021,1 30 20 0,0
12.08.2017 16:00:00 20,1 9,6 20,4 20,1 19,8 8 4 22 12 SSW 1021,4 - 4 0,0
12.08.2017 15:00:00 19,3 10,0 21,2 20,0 19,8 8 4 19 11 SSW 1022,0 30 0 0,0
12.08.2017 14:00:00 18,9 9,9 22,2 19,9 19,8 5 3 18 10 SW 1022,1 30 0 0,0
12.08.2017 13:00:00 18,8 9,6 23,1 19,9 19,8 9 5 24 13 SW 1022,1 30 6 0,0
12.08.2017 12:00:00 18,8 11,8 22,2 19,8 19,8 10 5 20 11 SW 1021,8 30 38 0,0
12.08.2017 11:00:00 16,6 10,7 19,8 19,8 19,8 9 5 22 12 SW 1022,2 25 5 0,0
12.08.2017 10:00:00 15,9 11,3 16,6 19,9 19,9 9 5 19 11 SW 1022,1 25 42 0,0
12.08.2017 09:00:00 14,2 10,8 12,6 20,0 19,8 5 3 12 7 SSW 1022,1 20 36 0,0
12.08.2017 08:00:00 12,8 10,5 12,0 20,1 19,9 3 2 11 6 SSW 1021,8 15 0 0,0
12.08.2017 07:00:00 12,5 10,6 11,9 20,1 19,8 0 0 8 4 N 1021,3 12 0 0,0
12.08.2017 06:00:00 12,6 10,7 12,2 20,2 19,9 0 0 8 4 N 1021,4 10 0 0,0
12.08.2017 05:00:00 12,7 10,4 11,8 20,2 19,8 3 2 10 6 S 1021,5 - 0 0,0
12.08.2017 04:00:00 12,8 10,5 12,1 20,4 19,9 3 2 11 6 S 1021,5 - 0 0,6
12.08.2017 03:00:00 13,3 9,9 11,6 20,5 19,9 4 2 11 6 SSW 1021,5 - 0 0,0

tt = Température de l'air
td = dewpoint
tt 5cm = Température de l'air 5cm
tt -20cm = Température de l'air -20cm
tt -100cm = Température de l'air -100cm
ff = Vitesse du vent
fx = gusts
dd = Direction du vent
ppp = reduced air pressure
vv = visibility
sd = Ensoleillement
rr = Quantités de précipitations

stations d'obs. à proximité